Location: Clanezzo
(45.7500°N, 9.6000°E)
Time: 10:22:25
(UTC+00:00)

CUTE-I - Pass Details

Date: 06 December 2023
Orbit: 807 x 823 km, 98.7° (Epoch: 02 March)

Event Time Altitude Azimuth Distance (km) Brightness Sun altitude
Rises 16:16:55 0° 152° (SSE) 3,314 ? -6.8°
Reaches altitude 10° 16:19:15 10° 149° (SSE) 2,388 ? -7.2°
Maximum altitude 16:24:26 60° 71° (ENE) 932 ? -8.0°
Drops below altitude 10° 16:29:40 10° 353° (N) 2,414 ? -8.9°
Sets 16:32:03 0° 350° (N) 3,353 ? -9.3°
